Year,Month,Day,Hour,Minute,Value (Times are PST for temperature in C)
2014,08,13,00,00,23.80
2014,08,13,00,01,23.70
2014,08,13,00,02,23.70
2014,08,13,00,03,23.70
2014,08,13,00,04,23.70
2014,08,13,00,05,23.70
2014,08,13,00,06,23.60
2014,08,13,00,07,23.60
2014,08,13,00,08,23.60
2014,08,13,00,09,23.60
2014,08,13,00,10,23.50
2014,08,13,00,11,23.40
2014,08,13,00,12,23.20
2014,08,13,00,13,23.00
2014,08,13,00,14,22.70
2014,08,13,00,15,22.50
2014,08,13,00,16,22.20
2014,08,13,00,17,21.90
2014,08,13,00,18,21.70
2014,08,13,00,19,21.60
2014,08,13,00,20,21.50
2014,08,13,00,21,21.40
2014,08,13,00,22,21.30
2014,08,13,00,23,21.20
2014,08,13,00,24,21.20
2014,08,13,00,25,21.20
2014,08,13,00,26,21.20
2014,08,13,00,27,21.10
2014,08,13,00,28,21.10
2014,08,13,00,29,21.20
2014,08,13,00,30,21.20
2014,08,13,00,31,21.20
2014,08,13,00,32,21.20
2014,08,13,00,33,21.20
2014,08,13,00,34,21.20
2014,08,13,00,35,21.20
2014,08,13,00,36,21.20
2014,08,13,00,37,21.20
2014,08,13,00,38,21.20
2014,08,13,00,39,21.20
2014,08,13,00,40,21.20
2014,08,13,00,41,21.20
2014,08,13,00,42,21.20
2014,08,13,00,43,21.20
2014,08,13,00,44,21.20
2014,08,13,00,45,21.20
2014,08,13,00,46,21.20
2014,08,13,00,47,21.20
2014,08,13,00,48,21.20
2014,08,13,00,49,21.20
2014,08,13,00,50,21.20
2014,08,13,00,51,21.20
2014,08,13,00,52,21.20
2014,08,13,00,53,21.20
2014,08,13,00,54,21.20
2014,08,13,00,55,21.20
2014,08,13,00,56,21.20
2014,08,13,00,57,21.10
2014,08,13,00,58,21.10
2014,08,13,00,59,21.10
2014,08,13,01,00,21.10
2014,08,13,01,01,21.10
2014,08,13,01,02,21.10
2014,08,13,01,03,21.00
2014,08,13,01,04,21.00
2014,08,13,01,05,21.00
2014,08,13,01,06,20.90
2014,08,13,01,07,20.90
2014,08,13,01,08,20.80
2014,08,13,01,09,20.80
2014,08,13,01,10,20.80
2014,08,13,01,11,20.80
2014,08,13,01,12,20.80
2014,08,13,01,13,20.80
2014,08,13,01,14,20.70
2014,08,13,01,15,20.70
2014,08,13,01,16,20.70
2014,08,13,01,17,20.70
2014,08,13,01,18,20.70
2014,08,13,01,19,20.70
2014,08,13,01,20,20.70
2014,08,13,01,21,20.70
2014,08,13,01,22,20.70
2014,08,13,01,23,20.70
2014,08,13,01,24,20.70
2014,08,13,01,25,20.70
2014,08,13,01,26,20.60
2014,08,13,01,27,20.60
2014,08,13,01,28,20.60
2014,08,13,01,29,20.60
2014,08,13,01,30,20.60
2014,08,13,01,31,20.60
2014,08,13,01,32,20.60
2014,08,13,01,33,20.60
2014,08,13,01,34,20.60
2014,08,13,01,35,20.60
2014,08,13,01,36,20.60
2014,08,13,01,37,20.60
2014,08,13,01,38,20.50
2014,08,13,01,39,20.50
2014,08,13,01,40,20.50
2014,08,13,01,41,20.50
2014,08,13,01,42,20.50
2014,08,13,01,43,20.40
2014,08,13,01,44,20.40
2014,08,13,01,45,20.40
2014,08,13,01,46,20.40
2014,08,13,01,47,20.40
2014,08,13,01,48,20.40
2014,08,13,01,49,20.40
2014,08,13,01,50,20.40
2014,08,13,01,51,20.40
2014,08,13,01,52,20.30
2014,08,13,01,53,20.30
2014,08,13,01,54,20.30
2014,08,13,01,55,20.30
2014,08,13,01,56,20.30
2014,08,13,01,57,20.30
2014,08,13,01,58,20.30
2014,08,13,01,59,20.30
2014,08,13,02,00,20.30
2014,08,13,02,01,20.30
2014,08,13,02,02,20.30
2014,08,13,02,03,20.20
2014,08,13,02,04,20.20
2014,08,13,02,05,20.20
2014,08,13,02,06,20.20
2014,08,13,02,07,20.20
2014,08,13,02,08,20.20
2014,08,13,02,09,20.20
2014,08,13,02,10,20.20
2014,08,13,02,11,20.20
2014,08,13,02,12,20.20
2014,08,13,02,13,20.20
2014,08,13,02,14,20.20
2014,08,13,02,15,20.20
2014,08,13,02,16,20.20
2014,08,13,02,17,20.20
2014,08,13,02,18,20.20
2014,08,13,02,19,20.20
2014,08,13,02,20,20.20
2014,08,13,02,21,20.20
2014,08,13,02,22,20.10
2014,08,13,02,23,20.10
2014,08,13,02,24,20.10
2014,08,13,02,25,20.10
2014,08,13,02,26,20.10
2014,08,13,02,27,20.10
2014,08,13,02,28,20.10
2014,08,13,02,29,20.10
2014,08,13,02,30,20.10
2014,08,13,02,31,20.10
2014,08,13,02,32,20.10
2014,08,13,02,33,20.10
2014,08,13,02,34,20.10
2014,08,13,02,35,20.10
2014,08,13,02,36,20.10
2014,08,13,02,37,20.10
2014,08,13,02,38,20.10
2014,08,13,02,39,20.10
2014,08,13,02,40,20.10
2014,08,13,02,41,20.10
2014,08,13,02,42,20.10
2014,08,13,02,43,20.10
2014,08,13,02,44,20.10
2014,08,13,02,45,20.10
2014,08,13,02,46,20.10
2014,08,13,02,47,20.10
2014,08,13,02,48,20.10
2014,08,13,02,49,20.10
2014,08,13,02,50,20.10
2014,08,13,02,51,20.10
2014,08,13,02,52,20.10
2014,08,13,02,53,20.00
2014,08,13,02,54,20.00
2014,08,13,02,55,19.90
2014,08,13,02,56,19.70
2014,08,13,02,57,19.60
2014,08,13,02,58,19.40
2014,08,13,02,59,19.20
2014,08,13,03,00,19.00
2014,08,13,03,01,18.90
2014,08,13,03,02,18.80
2014,08,13,03,03,18.60
2014,08,13,03,04,18.40
2014,08,13,03,05,18.30
2014,08,13,03,06,18.30
2014,08,13,03,07,18.30
2014,08,13,03,08,18.30
2014,08,13,03,09,18.30
2014,08,13,03,10,18.40
2014,08,13,03,11,18.40
2014,08,13,03,12,18.50
2014,08,13,03,13,18.50
2014,08,13,03,14,18.60
2014,08,13,03,15,18.60
2014,08,13,03,16,18.70
2014,08,13,03,17,18.80
2014,08,13,03,18,18.90
2014,08,13,03,19,19.00
2014,08,13,03,20,19.00
2014,08,13,03,21,19.10
2014,08,13,03,22,19.10
2014,08,13,03,23,19.20
2014,08,13,03,24,19.20
2014,08,13,03,25,19.20
2014,08,13,03,26,19.20
2014,08,13,03,27,19.30
2014,08,13,03,28,19.30
2014,08,13,03,29,19.30
2014,08,13,03,30,19.30
2014,08,13,03,31,19.30
2014,08,13,03,32,19.30
2014,08,13,03,33,19.30
2014,08,13,03,34,19.30
2014,08,13,03,35,19.30
2014,08,13,03,36,19.30
2014,08,13,03,37,19.30
2014,08,13,03,38,19.30
2014,08,13,03,39,19.20
2014,08,13,03,40,19.20
2014,08,13,03,41,19.20
2014,08,13,03,42,19.20
2014,08,13,03,43,19.10
2014,08,13,03,44,19.10
2014,08,13,03,45,19.10
2014,08,13,03,46,19.10
2014,08,13,03,47,19.10
2014,08,13,03,48,19.10
2014,08,13,03,49,19.20
2014,08,13,03,50,19.20
2014,08,13,03,51,19.20
2014,08,13,03,52,19.20
2014,08,13,03,53,19.20
2014,08,13,03,54,19.20
2014,08,13,03,55,19.20
2014,08,13,03,56,19.20
2014,08,13,03,57,19.20
2014,08,13,03,58,19.30
2014,08,13,03,59,19.30
2014,08,13,04,00,19.20
2014,08,13,04,01,19.20
2014,08,13,04,02,19.20
2014,08,13,04,03,19.20
2014,08,13,04,04,19.20
2014,08,13,04,05,19.30
2014,08,13,04,06,19.30
2014,08,13,04,07,19.30
2014,08,13,04,08,19.30
2014,08,13,04,09,19.30
2014,08,13,04,10,19.20
2014,08,13,04,11,19.20
2014,08,13,04,12,19.20
2014,08,13,04,13,19.20
2014,08,13,04,14,19.30
2014,08,13,04,15,19.30
2014,08,13,04,16,19.30
2014,08,13,04,17,19.30
2014,08,13,04,18,19.30
2014,08,13,04,19,19.30
2014,08,13,04,20,19.30
2014,08,13,04,21,19.30
2014,08,13,04,22,19.30
2014,08,13,04,23,19.30
2014,08,13,04,24,19.30
2014,08,13,04,25,19.30
2014,08,13,04,26,19.30
2014,08,13,04,27,19.30
2014,08,13,04,28,19.20
2014,08,13,04,29,19.20
2014,08,13,04,30,19.10
2014,08,13,04,31,19.10
2014,08,13,04,32,19.00
2014,08,13,04,33,19.00
2014,08,13,04,34,18.90
2014,08,13,04,35,18.90
2014,08,13,04,36,18.80
2014,08,13,04,37,18.80
2014,08,13,04,38,18.70
2014,08,13,04,39,18.70
2014,08,13,04,40,18.60
2014,08,13,04,41,18.50
2014,08,13,04,42,18.40
2014,08,13,04,43,18.40
2014,08,13,04,44,18.30
2014,08,13,04,45,18.20
2014,08,13,04,46,18.20
2014,08,13,04,47,18.10
2014,08,13,04,48,18.00
2014,08,13,04,49,18.00
2014,08,13,04,50,17.90
2014,08,13,04,51,17.90
2014,08,13,04,52,17.80
2014,08,13,04,53,17.80
2014,08,13,04,54,17.80
2014,08,13,04,55,17.70
2014,08,13,04,56,17.70
2014,08,13,04,57,17.70
2014,08,13,04,58,17.70
2014,08,13,04,59,17.70
2014,08,13,05,00,17.70
2014,08,13,05,01,17.70
2014,08,13,05,02,17.70
2014,08,13,05,03,17.70
2014,08,13,05,04,17.60
2014,08,13,05,05,17.60
2014,08,13,05,06,17.60
2014,08,13,05,07,17.60
2014,08,13,05,08,17.60
2014,08,13,05,09,17.50
2014,08,13,05,10,17.50
2014,08,13,05,11,17.50
2014,08,13,05,12,17.50
2014,08,13,05,13,17.60
2014,08,13,05,14,17.60
2014,08,13,05,15,17.50
2014,08,13,05,16,17.50
2014,08,13,05,17,17.50
2014,08,13,05,18,17.50
2014,08,13,05,19,17.50
2014,08,13,05,20,17.50
2014,08,13,05,21,17.50
2014,08,13,05,22,17.50
2014,08,13,05,23,17.40
2014,08,13,05,24,17.40
2014,08,13,05,25,17.40
2014,08,13,05,26,17.40
2014,08,13,05,27,17.40
2014,08,13,05,28,17.40
2014,08,13,05,29,17.40
2014,08,13,05,30,17.30
2014,08,13,05,31,17.30
2014,08,13,05,32,17.30
2014,08,13,05,33,17.30
2014,08,13,05,34,17.30
2014,08,13,05,35,17.20
2014,08,13,05,36,17.20
2014,08,13,05,37,17.20
2014,08,13,05,38,17.20
2014,08,13,05,39,17.10
2014,08,13,05,40,17.10
2014,08,13,05,41,17.10
2014,08,13,05,42,17.10
2014,08,13,05,43,17.10
2014,08,13,05,44,17.10
2014,08,13,05,45,17.00
2014,08,13,05,46,17.00
2014,08,13,05,47,17.00
2014,08,13,05,48,17.00
2014,08,13,05,49,17.00
2014,08,13,05,50,17.00
2014,08,13,05,51,17.00
2014,08,13,05,52,17.00
2014,08,13,05,53,17.00
2014,08,13,05,54,17.10
2014,08,13,05,55,17.10
2014,08,13,05,56,17.10
2014,08,13,05,57,17.10
2014,08,13,05,58,17.10
2014,08,13,05,59,17.20
2014,08,13,06,00,17.20
2014,08,13,06,01,17.20
2014,08,13,06,02,17.20
2014,08,13,06,03,17.20
2014,08,13,06,04,17.20
2014,08,13,06,05,17.20
2014,08,13,06,06,17.20
2014,08,13,06,07,17.20
2014,08,13,06,08,17.20
2014,08,13,06,09,17.20
2014,08,13,06,10,17.20
2014,08,13,06,11,17.20
2014,08,13,06,12,17.20
2014,08,13,06,13,17.20
2014,08,13,06,14,17.20
2014,08,13,06,15,17.20
2014,08,13,06,16,17.20
2014,08,13,06,17,17.20
2014,08,13,06,18,17.20
2014,08,13,06,19,17.20
2014,08,13,06,20,17.10
2014,08,13,06,21,17.10
2014,08,13,06,22,17.10
2014,08,13,06,23,17.10
2014,08,13,06,24,17.10
2014,08,13,06,25,17.10
2014,08,13,06,26,17.10
2014,08,13,06,27,17.00
2014,08,13,06,28,17.00
2014,08,13,06,29,17.00
2014,08,13,06,30,17.00
2014,08,13,06,31,17.00
2014,08,13,06,32,17.00
2014,08,13,06,33,17.00
2014,08,13,06,34,17.00
2014,08,13,06,35,17.00
2014,08,13,06,36,17.00
2014,08,13,06,37,17.00
2014,08,13,06,38,17.00
2014,08,13,06,39,17.00
2014,08,13,06,40,17.00
2014,08,13,06,41,17.00
2014,08,13,06,42,17.00
2014,08,13,06,43,17.00
2014,08,13,06,44,17.00
2014,08,13,06,45,17.00
2014,08,13,06,46,17.00
2014,08,13,06,47,16.90
2014,08,13,06,48,16.90
2014,08,13,06,49,16.90
2014,08,13,06,50,16.90
2014,08,13,06,51,16.90
2014,08,13,06,52,16.90
2014,08,13,06,53,16.90
2014,08,13,06,54,16.90
2014,08,13,06,55,16.90
2014,08,13,06,56,16.90
2014,08,13,06,57,16.90
2014,08,13,06,58,16.90
2014,08,13,06,59,16.90
2014,08,13,07,00,16.90
2014,08,13,07,01,16.90
2014,08,13,07,02,16.90
2014,08,13,07,03,16.90
2014,08,13,07,04,16.90
2014,08,13,07,05,16.90
2014,08,13,07,06,16.90
2014,08,13,07,07,16.90
2014,08,13,07,08,16.90
2014,08,13,07,09,16.90
2014,08,13,07,10,16.90
2014,08,13,07,11,16.90
2014,08,13,07,12,16.90
2014,08,13,07,13,16.90
2014,08,13,07,14,16.90
2014,08,13,07,15,16.90
2014,08,13,07,16,16.90
2014,08,13,07,17,16.90
2014,08,13,07,18,17.00
2014,08,13,07,19,17.00
2014,08,13,07,20,17.00
2014,08,13,07,21,17.00
2014,08,13,07,22,17.00
2014,08,13,07,23,17.00
2014,08,13,07,24,17.10
2014,08,13,07,25,17.10
2014,08,13,07,26,17.10
2014,08,13,07,27,17.10
2014,08,13,07,28,17.10
2014,08,13,07,29,17.20
2014,08,13,07,30,17.20
2014,08,13,07,31,17.20
2014,08,13,07,32,17.20
2014,08,13,07,33,17.20
2014,08,13,07,34,17.20
2014,08,13,07,35,17.20
2014,08,13,07,36,17.20
2014,08,13,07,37,17.20
2014,08,13,07,38,17.20
2014,08,13,07,39,17.20
2014,08,13,07,40,17.20
2014,08,13,07,41,17.20
2014,08,13,07,42,17.20
2014,08,13,07,43,17.20
2014,08,13,07,44,17.20
2014,08,13,07,45,17.20
2014,08,13,07,46,17.20
2014,08,13,07,47,17.20
2014,08,13,07,48,17.10
2014,08,13,07,49,17.10
2014,08,13,07,50,17.10
2014,08,13,07,51,17.10
2014,08,13,07,52,17.10
2014,08,13,07,53,17.10
2014,08,13,07,54,17.10
2014,08,13,07,55,17.10
2014,08,13,07,56,17.00
2014,08,13,07,57,17.00
2014,08,13,07,58,17.00
2014,08,13,07,59,16.90
2014,08,13,08,00,16.90
2014,08,13,08,01,16.90
2014,08,13,08,02,16.90
2014,08,13,08,03,16.90
2014,08,13,08,04,16.90
2014,08,13,08,05,16.90
2014,08,13,08,06,16.90
2014,08,13,08,07,16.90
2014,08,13,08,08,16.90
2014,08,13,08,09,16.90
2014,08,13,08,10,16.90
2014,08,13,08,11,16.90
2014,08,13,08,12,16.90
2014,08,13,08,13,16.90
2014,08,13,08,14,16.90
2014,08,13,08,15,16.90
2014,08,13,08,16,16.90
2014,08,13,08,17,16.90
2014,08,13,08,18,16.90
2014,08,13,08,19,16.90
2014,08,13,08,20,16.90
2014,08,13,08,21,16.90
2014,08,13,08,22,16.80
2014,08,13,08,23,16.80
2014,08,13,08,24,16.80
2014,08,13,08,25,16.80
2014,08,13,08,26,16.80
2014,08,13,08,27,16.80
2014,08,13,08,28,16.80
2014,08,13,08,29,16.80
2014,08,13,08,30,16.80
2014,08,13,08,31,16.70
2014,08,13,08,32,16.70
2014,08,13,08,33,16.70
2014,08,13,08,34,16.70
2014,08,13,08,35,16.70
2014,08,13,08,36,16.70
2014,08,13,08,37,16.70
2014,08,13,08,38,16.70
2014,08,13,08,39,16.70
2014,08,13,08,40,16.70
2014,08,13,08,41,16.80
2014,08,13,08,42,16.80
2014,08,13,08,43,16.80
2014,08,13,08,44,16.80
2014,08,13,08,45,16.80
2014,08,13,08,46,16.80
2014,08,13,08,47,16.80
2014,08,13,08,48,16.80
2014,08,13,08,49,16.80
2014,08,13,08,50,16.80
2014,08,13,08,51,16.80
2014,08,13,08,52,16.80
2014,08,13,08,53,16.90
2014,08,13,08,54,16.90
2014,08,13,08,55,16.90
2014,08,13,08,56,16.90
2014,08,13,08,57,16.90
2014,08,13,08,58,16.90
2014,08,13,08,59,16.90
2014,08,13,09,00,16.90
2014,08,13,09,01,16.90
2014,08,13,09,02,16.90
2014,08,13,09,03,16.90
2014,08,13,09,04,16.90
2014,08,13,09,05,16.90
2014,08,13,09,06,16.90
2014,08,13,09,07,16.90
2014,08,13,09,08,16.90
2014,08,13,09,09,16.90
2014,08,13,09,10,16.90
2014,08,13,09,11,16.90
2014,08,13,09,12,16.90
2014,08,13,09,13,16.90
2014,08,13,09,14,17.00
2014,08,13,09,15,17.00
2014,08,13,09,16,17.00
2014,08,13,09,17,17.00
2014,08,13,09,18,17.00
2014,08,13,09,19,17.10
2014,08,13,09,20,17.00
2014,08,13,09,21,17.00
2014,08,13,09,22,17.00
2014,08,13,09,23,17.00
2014,08,13,09,24,16.90
2014,08,13,09,25,16.90
2014,08,13,09,26,17.00
2014,08,13,09,27,17.00
2014,08,13,09,28,17.00
2014,08,13,09,29,17.00
2014,08,13,09,30,17.00
2014,08,13,09,31,17.00
2014,08,13,09,32,17.00
2014,08,13,09,33,17.00
2014,08,13,09,34,17.00
2014,08,13,09,35,17.00
2014,08,13,09,36,17.00
2014,08,13,09,37,17.00
2014,08,13,09,38,17.00
2014,08,13,09,39,17.10
2014,08,13,09,40,17.10
2014,08,13,09,41,17.10
2014,08,13,09,42,17.00
2014,08,13,09,43,17.00
2014,08,13,09,44,17.00
2014,08,13,09,45,17.10
2014,08,13,09,46,17.10
2014,08,13,09,47,17.10
2014,08,13,09,48,17.00
2014,08,13,09,49,17.00
2014,08,13,09,50,17.00
2014,08,13,09,51,17.10
2014,08,13,09,52,17.10
2014,08,13,09,53,17.10
2014,08,13,09,54,17.00
2014,08,13,09,55,17.00
2014,08,13,09,56,16.90
2014,08,13,09,57,16.90
2014,08,13,09,58,16.90
2014,08,13,09,59,16.90
2014,08,13,10,00,16.90
2014,08,13,10,01,17.00
2014,08,13,10,02,16.90
2014,08,13,10,03,16.90
2014,08,13,10,04,16.90
2014,08,13,10,05,16.90
2014,08,13,10,06,17.00
2014,08,13,10,07,17.00
2014,08,13,10,08,17.00
2014,08,13,10,09,17.10
2014,08,13,10,10,17.10
2014,08,13,10,11,17.10
2014,08,13,10,12,17.10
2014,08,13,10,13,17.10
2014,08,13,10,14,17.10
2014,08,13,10,15,17.10
2014,08,13,10,16,17.10
2014,08,13,10,17,17.10
2014,08,13,10,18,17.10
2014,08,13,10,19,17.10
2014,08,13,10,20,17.10
2014,08,13,10,21,17.10
2014,08,13,10,22,17.00
2014,08,13,10,23,17.00
2014,08,13,10,24,16.90
2014,08,13,10,25,16.90
2014,08,13,10,26,16.80
2014,08,13,10,27,16.80
2014,08,13,10,28,16.70
2014,08,13,10,29,16.60
2014,08,13,10,30,16.50
2014,08,13,10,31,16.30
2014,08,13,10,32,16.20
2014,08,13,10,33,16.20
2014,08,13,10,34,16.10
2014,08,13,10,35,16.10
2014,08,13,10,36,16.00
2014,08,13,10,37,16.00
2014,08,13,10,38,15.90
2014,08,13,10,39,15.90
2014,08,13,10,40,15.80
2014,08,13,10,41,15.80
2014,08,13,10,42,15.80
2014,08,13,10,43,15.90
2014,08,13,10,44,15.90
2014,08,13,10,45,15.90
2014,08,13,10,46,15.90
2014,08,13,10,47,15.80
2014,08,13,10,48,15.70
2014,08,13,10,49,15.70
2014,08,13,10,50,15.70
2014,08,13,10,51,15.70
2014,08,13,10,52,15.80
2014,08,13,10,53,15.70
2014,08,13,10,54,15.70
2014,08,13,10,55,15.70
2014,08,13,10,56,15.70
2014,08,13,10,57,15.70
2014,08,13,10,58,15.70
2014,08,13,10,59,15.60
2014,08,13,11,00,15.60
2014,08,13,11,01,15.60
2014,08,13,11,02,15.60
2014,08,13,11,03,15.60
2014,08,13,11,04,15.60
2014,08,13,11,05,15.70
2014,08,13,11,06,15.70
2014,08,13,11,07,15.70
2014,08,13,11,08,15.70
2014,08,13,11,09,15.80
2014,08,13,11,10,15.80
2014,08,13,11,11,15.90
2014,08,13,11,12,15.80
2014,08,13,11,13,15.70
2014,08,13,11,14,15.60
2014,08,13,11,15,15.60
2014,08,13,11,16,15.50
2014,08,13,11,17,15.50
2014,08,13,11,18,15.40
2014,08,13,11,19,15.30
2014,08,13,11,20,15.30
2014,08,13,11,21,15.30
2014,08,13,11,22,15.30
2014,08,13,11,23,15.30
2014,08,13,11,24,15.30
2014,08,13,11,25,15.30
2014,08,13,11,26,15.40
2014,08,13,11,27,15.40
2014,08,13,11,28,15.50
2014,08,13,11,29,15.50
2014,08,13,11,30,15.50
2014,08,13,11,31,15.40
2014,08,13,11,32,15.40
2014,08,13,11,33,15.30
2014,08,13,11,34,15.30
2014,08,13,11,35,15.20
2014,08,13,11,36,15.20
2014,08,13,11,37,15.10
2014,08,13,11,38,15.00
2014,08,13,11,39,15.00
2014,08,13,11,40,15.00
2014,08,13,11,41,15.00
2014,08,13,11,42,15.00
2014,08,13,11,43,14.90
2014,08,13,11,44,14.90
2014,08,13,11,45,15.00
2014,08,13,11,46,15.00
2014,08,13,11,47,15.00
2014,08,13,11,48,15.00
2014,08,13,11,49,15.00
2014,08,13,11,50,15.00
2014,08,13,11,51,15.00
2014,08,13,11,52,15.00
2014,08,13,11,53,15.10
2014,08,13,11,54,15.00
2014,08,13,11,55,15.00
2014,08,13,11,56,15.00
2014,08,13,11,57,15.00
2014,08,13,11,58,15.00
2014,08,13,11,59,15.00
2014,08,13,12,00,15.00
2014,08,13,12,01,15.00
2014,08,13,12,02,15.00
2014,08,13,12,03,15.00
2014,08,13,12,04,15.00
2014,08,13,12,05,15.00
2014,08,13,12,06,15.00
2014,08,13,12,07,15.00
2014,08,13,12,08,15.00
2014,08,13,12,09,14.90
2014,08,13,12,10,14.80
2014,08,13,12,11,14.80
2014,08,13,12,12,14.80
2014,08,13,12,13,14.70
2014,08,13,12,14,14.60
2014,08,13,12,15,14.50
2014,08,13,12,16,14.40
2014,08,13,12,17,14.30
2014,08,13,12,18,14.30
2014,08,13,12,19,14.20
2014,08,13,12,20,14.20
2014,08,13,12,21,14.20
2014,08,13,12,22,14.20
2014,08,13,12,23,14.10
2014,08,13,12,24,14.10
2014,08,13,12,25,14.10
2014,08,13,12,26,14.10
2014,08,13,12,27,14.10
2014,08,13,12,28,14.20
2014,08,13,12,29,14.20
2014,08,13,12,30,14.20
2014,08,13,12,31,14.20
2014,08,13,12,32,14.30
2014,08,13,12,33,14.30
2014,08,13,12,34,14.40
2014,08,13,12,35,14.40
2014,08,13,12,36,14.50
2014,08,13,12,37,14.50
2014,08,13,12,38,14.40
2014,08,13,12,39,14.40
2014,08,13,12,40,14.40
2014,08,13,12,41,14.30
2014,08,13,12,42,14.20
2014,08,13,12,43,14.20
2014,08,13,12,44,14.10
2014,08,13,12,45,14.00
2014,08,13,12,46,13.80
2014,08,13,12,47,13.70
2014,08,13,12,48,13.60
2014,08,13,12,49,13.50
2014,08,13,12,50,13.40
2014,08,13,12,51,13.30
2014,08,13,12,52,13.30
2014,08,13,12,53,13.30
2014,08,13,12,54,13.20
2014,08,13,12,55,13.10
2014,08,13,12,56,13.10
2014,08,13,12,57,13.00
2014,08,13,12,58,13.00
2014,08,13,12,59,13.00
2014,08,13,13,00,13.00
2014,08,13,13,01,12.90
2014,08,13,13,02,12.90
2014,08,13,13,03,12.90
2014,08,13,13,04,12.80
2014,08,13,13,05,12.70
2014,08,13,13,06,12.60
2014,08,13,13,07,12.50
2014,08,13,13,08,12.50
2014,08,13,13,09,12.40
2014,08,13,13,10,12.40
2014,08,13,13,11,12.40
2014,08,13,13,12,12.40
2014,08,13,13,13,12.40
2014,08,13,13,14,12.40
2014,08,13,13,15,12.40
2014,08,13,13,16,12.50
2014,08,13,13,17,12.50
2014,08,13,13,18,12.60
2014,08,13,13,19,12.60
2014,08,13,13,20,12.60
2014,08,13,13,21,12.70
2014,08,13,13,22,12.70
2014,08,13,13,23,12.80
2014,08,13,13,24,12.80
2014,08,13,13,25,12.90
2014,08,13,13,26,12.90
2014,08,13,13,27,13.00
2014,08,13,13,28,13.10
2014,08,13,13,29,13.10
2014,08,13,13,30,13.20
2014,08,13,13,31,13.20
2014,08,13,13,32,13.30
2014,08,13,13,33,13.30
2014,08,13,13,34,13.30
2014,08,13,13,35,13.30
2014,08,13,13,36,13.30
2014,08,13,13,37,13.30
2014,08,13,13,38,13.30
2014,08,13,13,39,13.30
2014,08,13,13,40,13.30
2014,08,13,13,41,13.30
2014,08,13,13,42,13.30
2014,08,13,13,43,13.30
2014,08,13,13,44,13.30
2014,08,13,13,45,13.20
2014,08,13,13,46,13.30
2014,08,13,13,47,13.30
2014,08,13,13,48,13.30
2014,08,13,13,49,13.40
2014,08,13,13,50,13.40
2014,08,13,13,51,13.40
2014,08,13,13,52,13.40
2014,08,13,13,53,13.40
2014,08,13,13,54,13.40
2014,08,13,13,55,13.40
2014,08,13,13,56,13.50
2014,08,13,13,57,13.50
2014,08,13,13,58,13.60
2014,08,13,13,59,13.60
2014,08,13,14,00,13.70
2014,08,13,14,01,13.70
2014,08,13,14,02,13.80
2014,08,13,14,03,13.80
2014,08,13,14,04,13.90
2014,08,13,14,05,14.00
2014,08,13,14,06,14.00
2014,08,13,14,07,14.10
2014,08,13,14,08,14.20
2014,08,13,14,09,14.20
2014,08,13,14,10,14.30
2014,08,13,14,11,14.30
2014,08,13,14,12,14.30
2014,08,13,14,13,14.30
2014,08,13,14,14,14.40
2014,08,13,14,15,14.40
2014,08,13,14,16,14.40
2014,08,13,14,17,14.40
2014,08,13,14,18,14.50
2014,08,13,14,19,14.50
2014,08,13,14,20,14.60
2014,08,13,14,21,14.60
2014,08,13,14,22,14.70
2014,08,13,14,23,14.70
2014,08,13,14,24,14.70
2014,08,13,14,25,14.80
2014,08,13,14,26,14.80
2014,08,13,14,27,14.80
2014,08,13,14,28,14.80
2014,08,13,14,29,14.80
2014,08,13,14,30,14.80
2014,08,13,14,31,14.80
2014,08,13,14,32,14.90
2014,08,13,14,33,14.90
2014,08,13,14,34,14.90
2014,08,13,14,35,15.00
2014,08,13,14,36,15.00
2014,08,13,14,37,15.00
2014,08,13,14,38,15.00
2014,08,13,14,39,15.00
2014,08,13,14,40,15.00
2014,08,13,14,41,15.00
2014,08,13,14,42,15.00
2014,08,13,14,43,15.00
2014,08,13,14,44,15.10
2014,08,13,14,45,15.10
2014,08,13,14,46,15.20
2014,08,13,14,47,15.10
2014,08,13,14,48,15.10
2014,08,13,14,49,15.20
2014,08,13,14,50,15.20
2014,08,13,14,51,15.20
2014,08,13,14,52,15.30
2014,08,13,14,53,15.30
2014,08,13,14,54,15.30
2014,08,13,14,55,15.30
2014,08,13,14,56,15.40
2014,08,13,14,57,15.40
2014,08,13,14,58,15.40
2014,08,13,14,59,15.40
2014,08,13,15,00,15.40
2014,08,13,15,01,15.40
2014,08,13,15,02,15.40
2014,08,13,15,03,15.40
2014,08,13,15,04,15.40
2014,08,13,15,05,15.40
2014,08,13,15,06,15.40
2014,08,13,15,07,15.40
2014,08,13,15,08,15.40
2014,08,13,15,09,15.40
2014,08,13,15,10,15.40
2014,08,13,15,11,15.50
2014,08,13,15,12,15.50
2014,08,13,15,13,15.50
2014,08,13,15,14,15.60
2014,08,13,15,15,15.60
2014,08,13,15,16,15.60
2014,08,13,15,17,15.60
2014,08,13,15,18,15.70
2014,08,13,15,19,15.70
2014,08,13,15,20,15.70
2014,08,13,15,21,15.70
2014,08,13,15,22,15.60
2014,08,13,15,23,15.60
2014,08,13,15,24,15.60
2014,08,13,15,25,15.60
2014,08,13,15,26,15.60
2014,08,13,15,27,15.60
2014,08,13,15,28,15.60
2014,08,13,15,29,15.60
2014,08,13,15,30,15.60
2014,08,13,15,31,15.70
2014,08,13,15,32,15.70
2014,08,13,15,33,15.70
2014,08,13,15,34,15.70
2014,08,13,15,35,15.70
2014,08,13,15,36,15.70
2014,08,13,15,37,15.70
2014,08,13,15,38,15.70
2014,08,13,15,39,15.70
2014,08,13,15,40,15.70
2014,08,13,15,41,15.70
2014,08,13,15,42,15.70
2014,08,13,15,43,15.70
2014,08,13,15,44,15.70
2014,08,13,15,45,15.80
2014,08,13,15,46,15.80
2014,08,13,15,47,15.80
2014,08,13,15,48,15.80
2014,08,13,15,49,15.80
2014,08,13,15,50,15.80
2014,08,13,15,51,15.80
2014,08,13,15,52,15.80
2014,08,13,15,53,15.80
2014,08,13,15,54,15.80
2014,08,13,15,55,15.80
2014,08,13,15,56,15.80
2014,08,13,15,57,15.80
2014,08,13,15,58,15.80
2014,08,13,15,59,15.70
2014,08,13,16,00,15.70
2014,08,13,16,01,15.70
2014,08,13,16,02,15.70
2014,08,13,16,03,15.70
2014,08,13,16,04,15.70
2014,08,13,16,05,15.60
2014,08,13,16,06,15.60
2014,08,13,16,07,15.60
2014,08,13,16,08,15.60
2014,08,13,16,09,15.60
2014,08,13,16,10,15.60
2014,08,13,16,11,15.60
2014,08,13,16,12,15.70
2014,08,13,16,13,15.70
2014,08,13,16,14,15.70
2014,08,13,16,15,15.70
2014,08,13,16,16,15.70
2014,08,13,16,17,15.70
2014,08,13,16,18,15.70
2014,08,13,16,19,15.70
2014,08,13,16,20,15.70
2014,08,13,16,21,15.70
2014,08,13,16,22,15.70
2014,08,13,16,23,15.70
2014,08,13,16,24,15.70
2014,08,13,16,25,15.70
2014,08,13,16,26,15.70
2014,08,13,16,27,15.70
2014,08,13,16,28,15.70
2014,08,13,16,29,15.70
2014,08,13,16,30,15.70
2014,08,13,16,31,15.70
2014,08,13,16,32,15.70
2014,08,13,16,33,15.60
2014,08,13,16,34,15.60
2014,08,13,16,35,15.60
2014,08,13,16,36,15.50
2014,08,13,16,37,15.40
2014,08,13,16,38,15.40
2014,08,13,16,39,15.40
2014,08,13,16,40,15.40
2014,08,13,16,41,15.40
2014,08,13,16,42,15.40
2014,08,13,16,43,15.40
2014,08,13,16,44,15.40
2014,08,13,16,45,15.40
2014,08,13,16,46,15.30
2014,08,13,16,47,15.20
2014,08,13,16,48,15.20
2014,08,13,16,49,15.10
2014,08,13,16,50,15.00
2014,08,13,16,51,15.00
2014,08,13,16,52,15.00
2014,08,13,16,53,15.00
2014,08,13,16,54,14.90
2014,08,13,16,55,14.90
2014,08,13,16,56,14.80
2014,08,13,16,57,14.80
2014,08,13,16,58,14.80
2014,08,13,16,59,14.80
2014,08,13,17,00,14.80
2014,08,13,17,01,14.80
2014,08,13,17,02,14.80
2014,08,13,17,03,14.80
2014,08,13,17,04,14.90
2014,08,13,17,05,14.90
2014,08,13,17,06,14.90
2014,08,13,17,07,14.90
2014,08,13,17,08,15.00
2014,08,13,17,09,15.00
2014,08,13,17,10,15.00
2014,08,13,17,11,15.00
2014,08,13,17,12,15.00
2014,08,13,17,13,15.00
2014,08,13,17,14,15.00
2014,08,13,17,15,15.00
2014,08,13,17,16,15.00
2014,08,13,17,17,15.10
2014,08,13,17,18,15.10
2014,08,13,17,19,15.00